Location: Unspecified
(45.4615°N, 74.0512°W)
Time: 18:23:27
(UTC-04:00)

Resurs 1-4 Rocket - Visible Passes

Search period start: 22 June 2018 00:00
Search period end: 02 July 2018 00:00
Orbit: 800 x 813 km, 98.5° (Epoch: 21 June)

Date Brightness Start Highest point End Pass type
(mag) Time Alt. Az. Time Alt. Az. Time Alt. Az.
22 Jun 4.3 01:37:24 10° NE 01:40:28 15° E 01:43:31 10° SE visible
22 Jun 2.1 03:15:33 10° N 03:20:54 77° WNW 03:24:48 19° SSW visible
23 Jun 2.3 02:50:59 10° NNE 02:56:19 67° ESE 02:59:54 21° S visible
23 Jun 3.8 04:31:53 10° NNW 04:35:37 20° WNW 04:39:20 10° WSW visible
24 Jun 3.0 02:26:36 10° NNE 02:31:38 41° E 02:35:00 19° SSE visible
24 Jun 3.3 04:06:44 10° N 04:11:18 30° WNW 04:15:51 10° WSW visible
25 Jun 3.7 02:02:28 10° NE 02:06:52 26° E 02:10:07 15° SE visible
25 Jun 2.6 03:41:49 10° N 03:46:54 46° WNW 03:51:11 14° SW visible
26 Jun 4.3 01:38:50 10° NE 01:42:01 16° E 01:45:11 10° SE visible
26 Jun 2.1 03:17:05 10° N 03:22:25 74° WNW 03:26:17 19° SSW visible
27 Jun 2.3 02:52:30 10° NNE 02:57:51 70° ESE 03:01:22 22° S visible
28 Jun 3.0 02:28:07 10° NNE 02:33:11 43° E 02:36:29 20° SSE visible
28 Jun 3.3 04:08:18 10° N 04:12:49 29° WNW 04:17:19 10° WSW visible
29 Jun 3.7 02:03:57 10° NE 02:08:26 27° E 02:11:35 16° SE visible
29 Jun 2.7 03:43:22 10° N 03:48:26 45° WNW 03:52:39 14° SW visible
30 Jun 4.2 01:40:16 10° NE 01:43:34 16° E 01:46:40 11° SE visible
30 Jun 2.2 03:18:37 10° N 03:23:57 72° WNW 03:27:45 19° SSW visible
01 Jul 2.2 02:54:02 10° NNE 02:59:23 72° ESE 03:02:50 22° S visible
